Location: Unspecified
(0.0000°N, 0.0000°E)
Time: 10:34:45
(UTC+00:00)

Tiros 1 despin weight - Pass Details

Date: 16 December 2018
Orbit: 594 x 643 km, 48.2° (Epoch: 17 January)

Event Time Altitude Azimuth Distance (km) Brightness Sun altitude
Rises 18:58:07 0° 182° (S) 2,830 ? -14.3°
Reaches altitude 10° 19:02:31 10° 141° (SE) 1,921 ? -15.3°
Maximum altitude 19:03:19 10° 131° (SE) 1,892 ? -15.5°
Enters shadow 19:04:00 10° 122° (ESE) 1,912 ? -15.6°
